Weather History for Moses Lake, WA

Change the Weather History Date:

Tuesday, July 17, 2012

  Actual Average Record
Temperature  
Mean Temperature 79 °F 73 °F  
Max Temperature 91 °F 90 °F 102 °F (2004)
Min Temperature 66 °F 57 °F 39 °F (1982)
Degree Days  
Heating Degree Days 0 0  
Month to date heating degree days 6 6  
Since 1 June heating degree days 92 61  
Since 1 July heating degree days 6 6  
Cooling Degree Days 14 8  
Month to date cooling degree days 180 117  
Year to date cooling degree days 272 227  
Since 1 June cooling degree days 245 202  
Growing Degree Days 28 (Base 50)    
Moisture  
Dew Point 59 °F    
Average Humidity 60    
Maximum Humidity 87    
Minimum Humidity 32    
Precipitation  
Precipitation T in 0.01 in 0.05 in (1999)
Month to date precipitation 0.29 0.23  
Year to date precipitation 5.19 5.00  
Sea Level Pressure  
Sea Level Pressure 29.77 in    
Wind  
Wind Speed 5 mph (North)    
Max Wind Speed 22 mph    
Max Gust Speed 25 mph    
Visibility 10 miles    
Events Rain    
T = Trace of Precipitation, MM = Missing Value Source: NWS Daily Summary

Daily Weather History Graph

Daily Weather History Graph

Search for Another Location

Airport:

Trip Planner

Search our weather history database for the weather conditions in past years. The results will help you decide how hot, cold, wet, or windy it might be!

Date:

Astronomy

Jul. 17, 2012 Rise Set
Actual Time 5:19 AM PDT 8:47 PM PDT
Civil Twilight 4:41 AM PDT 9:24 PM PDT
Nautical Twilight 3:51 AM PDT 10:14 PM PDT
Astronomical Twilight 2:44 AM PDT 11:20 PM PDT
Moon 4:01 AM PDT 7:38 PM PDT
Length of Visible Light 16h 43m
Length of Day
15h 27m
Waning Crescent, 2% of the Moon is Illuminated
Jul 17
Waning Crescent
Jul 18
New
Jul 26
First Quarter
Aug 1
Full
Aug 9
Last Quarter

Hourly Weather History & Observations

Time (PDT) Temp. Heat Index Dew Point Humidity Pressure Visibility Wind Dir Wind Speed Gust Speed Precip Events Conditions
12:52 AM 68.0 °F - 63.0 °F 84% 29.77 in 10.0 mi WSW 20.7 mph - 0.06 in Rain Light Rain
1:52 AM 66.0 °F - 62.1 °F 87% 29.75 in 10.0 mi WNW 13.8 mph - 0.01 in   Clear
2:52 AM 66.9 °F - 61.0 °F 81% 29.72 in 10.0 mi NW 4.6 mph - N/A   Clear
3:52 AM 66.9 °F - 62.1 °F 84% 29.74 in 10.0 mi NNE 6.9 mph - N/A   Clear
4:52 AM 66.9 °F - 62.1 °F 84% 29.77 in 10.0 mi NE 4.6 mph - N/A   Clear
5:52 AM 66.0 °F - 62.1 °F 87% 29.77 in 10.0 mi North 4.6 mph - N/A   Clear
6:52 AM 68.0 °F - 62.1 °F 81% 29.78 in 10.0 mi SW 3.5 mph - N/A   Clear
7:52 AM 70.0 °F - 61.0 °F 73% 29.79 in 10.0 mi Calm Calm - N/A   Mostly Cloudy
8:52 AM 73.0 °F - 62.1 °F 68% 29.81 in 10.0 mi Calm Calm - N/A   Mostly Cloudy
9:52 AM 75.9 °F - 63.0 °F 64% 29.81 in 10.0 mi Calm Calm - N/A   Clear
10:52 AM 78.1 °F - 59.0 °F 52% 29.81 in 10.0 mi Calm Calm - N/A   Clear
11:52 AM 82.0 °F 82.0 °F 57.9 °F 44% 29.80 in 10.0 mi ENE 9.2 mph - N/A   Clear
12:52 PM 86.0 °F 85.7 °F 60.1 °F 41% 29.79 in 10.0 mi NNE 8.1 mph - N/A   Clear
1:52 PM 87.1 °F 86.1 °F 57.9 °F 37% 29.78 in 10.0 mi North 6.9 mph - N/A   Partly Cloudy
2:52 PM 89.1 °F 87.7 °F 57.0 °F 34% 29.76 in 10.0 mi Variable 5.8 mph - N/A   Partly Cloudy
3:52 PM 90.0 °F 87.9 °F 55.0 °F 30% 29.74 in 10.0 mi Calm Calm - N/A   Clear
4:52 PM 91.0 °F 90.0 °F 57.9 °F 33% 29.73 in 10.0 mi Calm Calm - N/A   Mostly Cloudy
5:52 PM 89.1 °F 87.3 °F 55.9 °F 32% 29.74 in 10.0 mi Variable 4.6 mph - N/A   Mostly Cloudy
6:52 PM 88.0 °F 86.5 °F 55.9 °F 34% 29.73 in 10.0 mi NE 5.8 mph - N/A   Clear
7:52 PM 87.1 °F 85.9 °F 57.0 °F 36% 29.73 in 10.0 mi NE 3.5 mph - N/A   Clear
8:52 PM 84.9 °F 84.2 °F 57.9 °F 40% 29.76 in 10.0 mi WSW 6.9 mph - N/A   Clear
9:52 PM 78.1 °F - 55.0 °F 45% 29.78 in 10.0 mi West 12.7 mph - N/A   Clear
10:52 PM 75.9 °F - 55.9 °F 50% 29.78 in 10.0 mi ENE 4.6 mph - N/A   Clear
11:52 PM 77.0 °F - 55.0 °F 47% 29.77 in 10.0 mi Calm Calm - N/A   Clear